Location: Boiro
(42.6475°N, 8.8834°W)
Time: 05:26:09
(UTC+01:00)

Transit 4A - Pass Details

Date: 30 November 2021
Orbit: 864 x 980 km, 66.8° (Epoch: 17 January)

Event Time Altitude Azimuth Distance (km) Brightness Sun altitude
Exits shadow 05:25:25 27° 26° (NNE) 1,752 9.5 -36.1°
Maximum altitude 05:26:37 29° 45° (NE) 1,692 9.5 -35.8°
Drops below altitude 10° 05:32:02 10° 104° (ESE) 2,714 11.1 -34.9°
Sets 05:35:00 0° 115° (ESE) 3,667 11.8 -34.3°
